Content
SEND FEEDBACK

Daily
Averages
Monthly
Summary
Mexico

CANCUN, QUINTANA ROO


Home > North America > Mexico > Quintana Roo
Elevation: 9 meters     Latitude: 21 09N     Longitude: 086 49W

WEATHER
 
SELECT A DAY
Number of Records: 165,825;   Date Range: 1/1/95 - 9/29/14
 
SHARE

PRINT THIS DATA

[ ← Previous Day ]
WEATHER ALMANAC - 3 FEBRUARY, 2014
[ Next Day → ]
[ °F ]   °C
Weather ElementAverageHighLow
Temperature25.7 °C28 °C (10:43 am)23 °C (5:43 am)
Dewpoint22.6 °C23 °C (1:40 am)22 °C (2:44 am)
Humidity83.3 %94 % (5:43 am)70 % (11:42 am)
Barometer1015.2 hPa1017.6 hPa (9:40 am)1012.9 hPa (2:44 am)
Wind Speed10.8 km/h18.5 km/h (11:42 am)
Weather ElementAverage
Visibility11.3 km
Wind DirectionE (95.2 °)

Weather ElementTotal
Precipitation---
Cooling Degree Days7.2 (Base 18.3)
Growing Degree Days15.5 (Base 10)
Averaged from 23 records on 3 February, 2014
WEATHER CONDITIONS BREAKOUT
WIND DIRECTION BREAKOUT
WEATHER BY HOUR - 3 FEBRUARY, 2014
[ °F ]   °C
Local TimeTemperatureDewpointHumidityBarometerVisibilityWind DirectionWind SpeedGust SpeedPrecipitationEventsConditions
1:40 AM25 °C23 °C89 %1014.2 hPa11.3 kmESE (110°)13 km/hPartly Cloudy
2:44 AM25 °C22 °C83 %1012.9 hPa11.3 kmESE (110°)11.1 km/hScattered Clouds
3:43 AM24 °C22 °C89 %1014.2 hPa11.3 kmEast (100°)11.1 km/hScattered Clouds
4:40 AM24 °C22 °C89 %1014.2 hPa11.3 kmEast (100°)7.4 km/hScattered Clouds
5:43 AM23 °C22 °C94 %1014.2 hPa11.3 kmEast (100°)7.4 km/hScattered Clouds
6:45 AM23 °C22 °C94 %1015.9 hPa11.3 kmENE (60°)3.7 km/hScattered Clouds
7:44 AM26 °C22 °C78 %1016.6 hPa11.3 kmESE (120°)13 km/hScattered Clouds
8:43 AM27 °C22 °C74 %1016.6 hPa11.3 kmEast (100°)13 km/hScattered Clouds
9:40 AM27 °C22 °C74 %1017.6 hPa11.3 kmEast (80°)14.8 km/hScattered Clouds
10:43 AM28 °C23 °C74 %1017.3 hPa11.3 kmESE (110°)13 km/hMostly Cloudy
11:42 AM28 °C22 °C70 %1015.9 hPa11.3 kmEast (100°)18.5 km/hMostly Cloudy
12:46 PM28 °C22 °C70 %1015.6 hPa11.3 kmEast (90°)16.7 km/hMostly Cloudy
1:40 PM27 °C23 °C79 %1014.9 hPa11.3 kmEast (80°)11.1 km/hMostly Cloudy
2:43 PM27 °C23 °C79 %1014.2 hPa11.3 kmEast (80°)9.3 km/hMostly Cloudy
3:40 PM27 °C23 °C79 %1014.6 hPa11.3 kmEast (100°)11.1 km/hScattered Clouds
4:41 PM27 °C23 °C79 %1014.6 hPa11.3 kmEast (100°)11.1 km/hPartly Cloudy
5:48 PM25 °C23 °C89 %1013.9 hPa11.3 kmEast (100°)7.4 km/hPartly Cloudy
6:41 PM25 °C23 °C89 %1014.9 hPa11.3 kmEast (90°)7.4 km/hClear
7:42 PM25 °C23 °C89 %1015.6 hPa11.3 kmESE (110°)9.3 km/hScattered Clouds
8:43 PM25 °C23 °C89 %1014.9 hPa11.3 kmEast (90°)9.3 km/hPartly Cloudy
9:48 PM25 °C23 °C89 %1016.3 hPa11.3 kmEast (80°)9.3 km/hPartly Cloudy
10:47 PM25 °C23 °C89 %1015.9 hPa11.3 kmEast (100°)9.3 km/hClear
11:46 PM25 °C23 °C89 %1014.2 hPa11.3 kmEast (80°)9.3 km/hClear
Hourly data recorded from MMUN, located 0 kilometers away from Cancun, Quintana Roo







STORIES FROM OUR PARTNERS